Flag for U.S.A. Weather past 2 weeks in Wheaton, Illinois, U.S.A.

Now
76 °F

Passing clouds.


Feels Like: 76 °F
Forecast: 69 / 83 °F
Wind: 8 mph from Northwest

Location: Dupage Airport

Current Time: Jul 29, 2015 at 9:02:34 AM

Latest Report: Jul 29, 2015 at 7:52 AM


Visibility: 9 mi

Pressure: 29.94 "Hg

Humidity: 88%

Dew point: 72 °F

Location of WheatonLocation

Historic Weather in Wheaton — Graph

°F

Wheaton temperature yesterday

Maximum temperature yesterday: 89 °F (at 4:52 PM)
Minimum temperature yesterday: 68 °F (at 4:52 AM)
Average temperature yesterday: 79 °F

Past Weeks' High & Low Weather Summary

 TemperatureHumidityPressure
High91 °F (Jul 17, 4:52 PM)97% (Jul 20, 5:52 AM)30.03 "Hg (Jul 20, 5:52 AM)
Low54 °F (Jul 15, 4:52 AM)38% (Jul 27, 3:52 PM)29.60 "Hg (Jul 14, 7:52 AM)
Average75 °F70%29.90 "Hg
* Reported Jul 14 7:52 AM — Jul 29 7:52 AM, Wheaton, Weather by CustomWeather, © 2015

Note: Actual official high and low records may vary slightly from our data, if they occured in-between our weather recording intervals... More about our weather records

Advertising

Wheaton weather history for previous 24 hours

 ConditionsComfort  
Time TempWeatherWind HumidityBarometerVisibility
7:52 AM
Wed, Jul 29
76 °FPassing clouds.8 mph88%29.94 "Hg9 mi
6:52 AM74 °FPartly sunny.7 mph91%29.93 "Hg10 mi
5:52 AM73 °FPassing clouds.7 mph90%29.93 "Hg10 mi
4:52 AM73 °FClear.6 mph90%29.92 "Hg10 mi
3:52 AM74 °FPassing clouds.8 mph91%29.92 "Hg10 mi
2:52 AM74 °FPassing clouds.7 mph91%29.89 "Hg10 mi
1:52 AM75 °FPassing clouds.No wind88%29.89 "Hg10 mi
12:59 AM78 °FThundershowers. Partly cloudy.No wind82%29.93 "Hg10 mi
11:52 PM
Tue, Jul 28
77 °FPassing clouds.3 mph88%29.93 "Hg9 mi
10:52 PM78 °FPassing clouds.5 mph84%29.91 "Hg10 mi
9:52 PM77 °FClear.5 mph90%29.91 "Hg9 mi
8:52 PM80 °FSunny.5 mph85%29.92 "Hg10 mi
7:52 PM83 °FSunny.7 mph74%29.91 "Hg10 mi
6:52 PM84 °FSunny.8 mph70%29.89 "Hg10 mi
5:52 PM86 °FSunny.9 mph61%29.89 "Hg10 mi
4:52 PM89 °FSunny.12 mph52%29.87 "Hg10 mi
3:52 PM88 °FSunny.8 mph55%29.85 "Hg10 mi
2:52 PM88 °FSunny.7 mph50%29.92 "Hg10 mi
1:52 PM88 °FBroken clouds.10 mph57%29.96 "Hg10 mi
12:52 PM87 °FScattered clouds.8 mph57%29.96 "Hg10 mi
11:52 AM85 °FScattered clouds.8 mph61%29.96 "Hg10 mi
10:52 AM85 °FSunny.6 mph61%29.98 "Hg10 mi
9:52 AM82 °FSunny.9 mph65%29.96 "Hg10 mi
Weather by CustomWeather, © 2015

See weather overviewHow to use our weather pages